KN6ETB-1 Weather Reports


time (UTC)temp
C
wind
direction
speed
KPH
gust
KPH
rain 1hr
cm
rain 24hr
cm
rain mn
cm
humidity
%
barometer
mb
20260506140246 13 190 3.2 4.8 0.00 0.00 0.00 86 1017.2
20260506135743 13 202 1.6 3.2 0.00 0.00 0.00 86 1017.1
20260506135239 13 194 3.2 3.2 0.00 0.00 0.00 86 1017.0
20260506134737 13 207 3.2 3.2 0.00 0.00 0.00 86 1017.0
20260506134233 13 210 1.6 1.6 0.00 0.00 0.00 86 1017.1
20260506133730 13 193 3.2 3.2 0.00 0.00 0.00 86 1016.9
20260506133227 13 206 1.6 1.6 0.00 0.00 0.00 86 1016.9
20260506132724 13 200 1.6 1.6 0.00 0.00 0.00 86 1017.0
20260506132221 13 215 1.6 3.2 0.00 0.00 0.00 86 1016.9
20260506131719 13 198 3.2 3.2 0.00 0.00 0.00 86 1017.0
20260506131214 13 210 1.6 3.2 0.00 0.00 0.00 86 1016.9
20260506130712 13 206 1.6 3.2 0.00 0.00 0.00 85 1016.7
20260506130209 13 217 0.0 1.6 0.00 0.00 0.00 85 1016.9
20260506125707 13 208 1.6 1.6 0.00 0.00 0.00 85 1016.9
20260506125204 13 212 1.6 3.2 0.00 0.00 0.00 85 1016.9
20260506124702 13 212 3.2 3.2 0.00 0.00 0.00 85 1016.5
20260506124200 13 206 1.6 3.2 0.00 0.00 0.00 85 1016.4
20260506123657 13 192 6.4 9.7 0.00 0.00 0.00 85 1016.8
20260506123156 13 225 3.2 3.2 0.00 0.00 0.00 85 1016.5
20260506122652 13 192 3.2 4.8 0.00 0.00 0.00 85 1016.6
20260506122150 13 208 3.2 3.2 0.00 0.00 0.00 85 1016.6
20260506121647 13 208 3.2 3.2 0.00 0.00 0.00 85 1016.6
20260506121143 13 219 4.8 8.0 0.00 0.00 0.00 85 1016.4
20260506120641 13 226 4.8 4.8 0.00 0.00 0.00 85 1016.4
20260506120138 13 190 1.6 1.6 0.00 0.00 0.00 85 1016.6
20260506115637 13 223 4.8 4.8 0.00 0.00 0.00 84 1016.6
20260506115134 13 218 4.8 4.8 0.00 0.00 0.00 84 1016.4
20260506114632 13 216 4.8 8.0 0.00 0.00 0.00 84 1016.4
20260506114130 13 219 4.8 4.8 0.00 0.00 0.00 84 1016.6
20260506113628 13 218 1.6 3.2 0.00 0.00 0.00 84 1016.3
20260506113125 13 205 3.2 3.2 0.00 0.00 0.00 84 1016.3
20260506112621 13 204 6.4 9.7 0.00 0.00 0.00 84 1016.0
20260506112119 13 202 1.6 3.2 0.00 0.00 0.00 84 1016.2
20260506111616 13 208 3.2 4.8 0.00 0.00 0.00 83 1016.3
20260506111114 13 222 3.2 3.2 0.00 0.00 0.00 83 1016.0
20260506110611 13 195 4.8 8.0 0.00 0.00 0.00 83 1016.2
20260506110108 13 209 4.8 8.0 0.00 0.00 0.00 83 1016.0
20260506105604 13 227 4.8 9.7 0.00 0.00 0.00 83 1016.1
20260506105101 13 207 6.4 8.0 0.00 0.00 0.00 83 1015.9
20260506104600 13 186 6.4 8.0 0.00 0.00 0.00 83 1016.0
20260506104057 13 198 3.2 3.2 0.00 0.00 0.00 83 1016.0
20260506103554 13 215 6.4 8.0 0.00 0.00 0.00 83 1015.7
20260506103050 13 220 4.8 8.0 0.00 0.00 0.00 83 1015.8
20260506102549 13 207 6.4 9.7 0.00 0.00 0.00 83 1015.8
20260506102046 13 208 3.2 4.8 0.00 0.00 0.00 83 1015.5
20260506101543 13 192 3.2 3.2 0.00 0.00 0.00 82 1015.5
20260506101040 14 236 3.2 3.2 0.00 0.00 0.00 82 1015.7
20260506100538 14 211 1.6 3.2 0.00 0.00 0.00 82 1015.5
20260506100036 14 210 3.2 3.2 0.00 0.00 0.00 82 1015.8
20260506095535 14 236 4.8 4.8 0.00 0.00 0.00 82 1015.5
20260506095030 14 212 1.6 1.6 0.00 0.00 0.00 82 1015.5
20260506094528 14 199 3.2 3.2 0.00 0.00 0.00 82 1015.7
20260506094026 14 210 4.8 4.8 0.00 0.00 0.00 82 1015.5
20260506093524 14 211 4.8 8.0 0.00 0.00 0.00 82 1015.6
20260506093021 14 215 3.2 3.2 0.00 0.00 0.00 82 1015.7
20260506092519 14 209 4.8 4.8 0.00 0.00 0.00 82 1015.8
20260506092015 14 240 6.4 9.7 0.00 0.00 0.00 82 1015.7
20260506091514 14 194 3.2 3.2 0.00 0.00 0.00 82 1015.8
20260506091010 14 235 6.4 9.7 0.00 0.00 0.00 82 1015.7
20260506090509 14 197 6.4 9.7 0.00 0.00 0.00 81 1015.8
20260506090004 14 214 1.6 1.6 0.00 0.00 0.00 81 1015.7
20260506085502 14 224 4.8 4.8 0.00 0.00 0.00 81 1015.6
20260506084958 14 213 3.2 3.2 0.00 0.00 0.00 81 1015.6
20260506084455 14 200 4.8 9.7 0.00 0.00 0.00 81 1015.7
20260506083951 14 187 1.6 3.2 0.00 0.00 0.00 81 1015.5
20260506083448 14 207 4.8 4.8 0.00 0.00 0.00 81 1015.6
20260506082945 14 199 8.0 11.3 0.00 0.00 0.00 81 1015.7
20260506082442 14 193 4.8 4.8 0.00 0.00 0.00 81 1015.6
20260506081938 14 203 8.0 11.3 0.00 0.00 0.00 81 1015.6
20260506081437 14 210 8.0 9.7 0.00 0.00 0.00 81 1015.7
20260506080934 14 196 6.4 8.0 0.00 0.00 0.00 81 1015.8
20260506080430 14 216 4.8 8.0 0.00 0.00 0.00 81 1015.7
20260506073414 14 240 4.8 4.8 0.00 0.00 0.00 79 1015.6
20260506072912 14 218 6.4 8.0 0.00 0.00 0.00 79 1015.3
20260506072409 14 215 4.8 8.0 0.00 0.00 0.00 79 1015.2
20260506071906 14 190 6.4 8.0 0.00 0.00 0.00 79 1015.3
20260506071405 14 230 3.2 4.8 0.00 0.00 0.00 79 1015.2
20260506070901 15 219 4.8 8.0 0.00 0.00 0.00 79 1015.2
20260506070357 15 191 4.8 8.0 0.00 0.00 0.00 79 1015.1
20260506062335 14 227 4.8 4.8 0.00 0.10 0.10 79 1014.8
20260506061831 14 197 4.8 4.8 0.00 0.10 0.10 79 1014.7
20260506061328 14 235 4.8 4.8 0.00 0.10 0.10 79 1014.6
20260506060826 14 209 8.0 11.3 0.00 0.10 0.10 79 1014.6
20260506060324 15 215 4.8 4.8 0.00 0.10 0.10 79 1014.6
20260506051255 15 229 8.0 9.7 0.00 0.10 0.10 78 1014.5
20260506050753 15 188 8.0 11.3 0.00 0.10 0.10 78 1014.3
20260506050250 15 240 6.4 12.9 0.00 0.10 0.10 78 1014.1
20260506044741 15 182 3.2 3.2 0.00 0.10 0.10 78 1013.8
20260506044238 15 202 3.2 4.8 0.00 0.10 0.10 79 1013.9
20260506043736 15 168 4.8 4.8 0.00 0.10 0.10 79 1013.8
20260506043233 15 202 4.8 4.8 0.00 0.10 0.10 79 1013.8
20260506042732 15 210 6.4 8.0 0.00 0.10 0.10 79 1013.7
20260506042230 15 176 6.4 12.9 0.00 0.10 0.10 78 1013.7
20260506041728 15 193 8.0 9.7 0.00 0.10 0.10 77 1013.7
20260506041225 15 216 4.8 9.7 0.00 0.10 0.10 77 1013.8
20260506040722 15 208 9.7 11.3 0.00 0.10 0.10 77 1013.8
20260506040219 15 200 6.4 9.7 0.00 0.10 0.10 77 1013.7
20260506035716 15 225 6.4 9.7 0.00 0.10 0.10 77 1013.6
20260506035213 15 239 8.0 11.3 0.00 0.10 0.10 77 1013.7
20260506034709 15 204 4.8 9.7 0.00 0.10 0.10 77 1013.4
20260506034207 15 192 4.8 4.8 0.00 0.10 0.10 77 1013.4
20260506033704 15 222 8.0 12.9 0.00 0.10 0.10 77 1013.7
20260506033201 15 247 11.3 14.5 0.00 0.10 0.10 76 1013.3
20260506032658 16 199 8.0 11.3 0.00 0.10 0.10 76 1013.2
20260506032155 16 208 6.4 9.7 0.00 0.10 0.10 76 1013.0
20260506031651 16 204 6.4 9.7 0.00 0.10 0.10 76 1013.0
20260506031148 16 253 6.4 12.9 0.00 0.10 0.10 76 1013.2
20260506030647 16 187 8.0 11.3 0.00 0.10 0.10 76 1012.9
20260506030144 16 183 4.8 4.8 0.00 0.10 0.10 77 1013.0
20260506025641 16 194 4.8 4.8 0.00 0.10 0.10 76 1012.8
20260506025136 16 208 8.0 9.7 0.00 0.10 0.10 76 1012.8
20260506024634 16 239 6.4 9.7 0.00 0.10 0.10 76 1012.7
20260506024130 16 229 8.0 14.5 0.00 0.10 0.10 75 1012.7
20260506023627 16 202 6.4 11.3 0.00 0.10 0.10 75 1012.9
20260506023124 16 255 6.4 9.7 0.00 0.10 0.10 76 1012.8
20260506022621 16 226 8.0 9.7 0.00 0.10 0.10 75 1012.8
20260506022119 16 244 9.7 11.3 0.00 0.10 0.10 75 1012.5
20260506021616 17 211 8.0 11.3 0.00 0.10 0.10 75 1012.6
20260506021113 17 208 4.8 4.8 0.00 0.10 0.10 75 1012.4
20260506020610 17 232 3.2 3.2 0.00 0.10 0.10 74 1012.5
20260506020108 17 205 4.8 8.0 0.00 0.10 0.10 74 1012.7
20260506015605 17 216 4.8 8.0 0.00 0.10 0.10 74 1012.7
20260506015102 17 218 1.6 3.2 0.00 0.10 0.10 74 1012.5
20260506014600 17 252 4.8 8.0 0.00 0.10 0.10 73 1012.4
20260506014055 17 221 11.3 12.9 0.00 0.10 0.10 74 1012.5
20260506013554 17 205 8.0 9.7 0.00 0.10 0.10 74 1012.6
20260506013050 17 199 11.3 12.9 0.00 0.10 0.10 73 1012.4
20260506012546 17 207 8.0 12.9 0.00 0.10 0.10 73 1012.6
20260506012043 18 186 4.8 8.0 0.00 0.10 0.10 73 1012.5
20260506011541 18 212 4.8 9.7 0.00 0.10 0.10 72 1012.6
20260506011037 18 217 9.7 14.5 0.00 0.10 0.10 71 1012.4
20260506010537 18 186 4.8 8.0 0.00 0.10 0.10 71 1012.2
20260506010033 18 230 6.4 9.7 0.00 0.10 0.10 71 1012.2
20260506005530 18 180 11.3 14.5 0.00 0.10 0.10 70 1012.0
20260506005026 18 219 3.2 4.8 0.00 0.10 0.10 70 1012.2
20260506004523 18 202 6.4 11.3 0.00 0.10 0.10 69 1012.2
20260506004020 19 189 4.8 4.8 0.00 0.10 0.10 69 1012.3
20260506003516 18 185 6.4 9.7 0.00 0.10 0.10 70 1012.2
20260506003012 18 185 4.8 4.8 0.00 0.10 0.10 70 1012.3
20260506002508 18 239 4.8 4.8 0.00 0.10 0.10 70 1012.2
20260506002004 18 185 6.4 8.0 0.00 0.10 0.10 71 1012.2
20260506001501 18 233 4.8 8.0 0.00 0.10 0.10 70 1012.1
20260506000958 19 193 4.8 4.8 0.00 0.10 0.10 70 1012.3
20260506000455 18 222 8.0 11.3 0.00 0.10 0.10 71 1012.1
20260505235952 18 227 4.8 4.8 0.00 0.10 0.10 71 1012.3
20260505235451 18 202 6.4 14.5 0.00 0.10 0.10 70 1012.2
20260505234947 18 250 11.3 14.5 0.00 0.10 0.10 70 1012.0
20260505234444 18 209 4.8 4.8 0.00 0.10 0.10 70 1012.1
20260505233941 18 245 8.0 9.7 0.00 0.10 0.10 70 1012.1
20260505233439 19 248 6.4 9.7 0.00 0.10 0.10 69 1012.3
20260505232936 18 221 4.8 4.8 0.00 0.10 0.10 70 1012.2
20260505232434 19 246 3.2 4.8 0.00 0.10 0.10 70 1012.4
20260505231931 18 275 6.4 8.0 0.00 0.10 0.10 71 1012.3
20260505231428 18 209 4.8 8.0 0.00 0.10 0.10 73 1012.4
20260505230926 17 183 6.4 9.7 0.00 0.10 0.10 73 1012.4
20260505230424 18 232 6.4 8.0 0.00 0.10 0.10 73 1012.6
20260505225920 17 200 4.8 8.0 0.00 0.10 0.10 73 1012.4
20260505225417 18 211 6.4 8.0 0.00 0.10 0.10 73 1012.6
20260505224912 18 232 6.4 9.7 0.00 0.10 0.10 73 1012.4
20260505224410 18 199 6.4 8.0 0.00 0.10 0.10 73 1012.4
20260505223907 18 201 4.8 4.8 0.00 0.10 0.10 71 1012.5
20260505223404 18 187 3.2 4.8 0.00 0.10 0.10 72 1012.5
20260505222900 18 172 6.4 9.7 0.00 0.10 0.10 71 1012.5
20260505222356 18 247 4.8 4.8 0.00 0.10 0.10 71 1012.5
20260505221853 18 204 3.2 4.8 0.00 0.10 0.10 71 1012.7
20260505221350 18 105 4.8 4.8 0.00 0.10 0.10 71 1012.7
20260505220847 18 157 4.8 4.8 0.00 0.10 0.10 72 1012.9
20260505220344 18 158 6.4 8.0 0.00 0.10 0.10 70 1012.8
20260505215841 18 192 4.8 8.0 0.00 0.10 0.10 72 1012.8
20260505215339 18 161 3.2 3.2 0.00 0.10 0.10 72 1012.8
20260505214837 18 204 6.4 8.0 0.00 0.10 0.10 73 1012.8
20260505214334 18 207 4.8 4.8 0.00 0.10 0.10 74 1012.7
20260505213831 18 200 6.4 9.7 0.00 0.10 0.10 72 1012.9
20260505213329 18 203 6.4 9.7 0.00 0.10 0.10 75 1012.9
20260505212825 17 252 4.8 8.0 0.00 0.10 0.10 75 1012.9
20260505212322 18 181 6.4 8.0 0.00 0.10 0.10 74 1012.8
20260505211818 18 219 3.2 3.2 0.00 0.10 0.10 71 1012.9
20260505211316 18 235 0.0 1.6 0.00 0.10 0.10 71 1012.9
20260505210812 19 342 4.8 4.8 0.00 0.10 0.10 70 1012.7
20260505210309 18 184 3.2 4.8 0.00 0.10 0.10 71 1012.9
20260505205806 18 318 3.2 3.2 0.00 0.10 0.10 70 1012.8
20260505205305 18 328 6.4 8.0 0.00 0.10 0.10 69 1013.1
20260505204801 18 89 3.2 3.2 0.00 0.10 0.10 71 1013.0
20260505204259 18 177 1.6 3.2 0.00 0.10 0.10 72 1013.2
20260505203756 17 306 4.8 4.8 0.00 0.10 0.10 74 1012.9
20260505203253 18 64 4.8 8.0 0.00 0.10 0.10 74 1013.1
20260505202749 17 36 1.6 3.2 0.00 0.10 0.10 74 1013.1
20260505202245 18 107 3.2 3.2 0.00 0.10 0.10 75 1013.2
20260505201741 18 47 1.6 3.2 0.00 0.10 0.10 76 1013.3
20260505201239 17 275 1.6 1.6 0.00 0.10 0.10 75 1013.1
20260505200738 17 98 1.6 3.2 0.00 0.10 0.10 77 1013.0
20260505200235 17 52 6.4 9.7 0.00 0.10 0.10 76 1013.2
20260505195729 16 5 3.2 3.2 0.00 0.10 0.10 79 1013.2
20260505195227 16 49 1.6 1.6 0.00 0.10 0.10 81 1013.2
20260505194724 16 29 3.2 3.2 0.00 0.10 0.10 81 1013.1
20260505194221 16 159 0.0 1.6 0.00 0.10 0.10 80 1013.4
20260505193717 16 283 1.6 1.6 0.00 0.10 0.10 81 1013.3
20260505193214 16 52 1.6 3.2 0.00 0.10 0.10 80 1013.3
20260505192713 16 272 0.0 0.0 0.00 0.10 0.10 82 1013.3
20260505192210 15 309 1.6 1.6 0.00 0.10 0.10 83 1013.4
20260505191708 15 305 3.2 3.2 0.00 0.10 0.10 84 1013.4
20260505191206 15 284 1.6 3.2 0.00 0.10 0.10 84 1013.5
20260505190702 15 318 6.4 8.0 0.00 0.10 0.10 84 1013.3
20260505190201 15 289 1.6 3.2 0.00 0.10 0.10 84 1013.3
20260505185659 15 333 3.2 8.0 0.00 0.10 0.10 84 1013.3
20260505185155 15 339 3.2 4.8 0.00 0.10 0.10 84 1013.0
20260505184651 15 279 0.0 1.6 0.00 0.10 0.10 85 1013.2
20260505184148 15 279 1.6 1.6 0.00 0.10 0.10 85 1013.3
20260505183645 15 279 0.0 0.0 0.00 0.10 0.10 85 1013.0
20260505183143 15 297 6.4 8.0 0.00 0.10 0.10 84 1013.1
20260505182639 15 349 8.0 11.3 0.00 0.10 0.10 84 1013.2
20260505182136 15 312 4.8 8.0 0.00 0.10 0.10 84 1013.2
20260505181632 15 348 3.2 3.2 0.00 0.10 0.10 84 1012.8
20260505181130 15 320 9.7 11.3 0.00 0.10 0.10 85 1013.1
20260505180626 15 307 8.0 9.7 0.00 0.10 0.10 86 1013.1
20260505180124 15 296 6.4 8.0 0.00 0.10 0.10 86 1013.1
20260505175619 14 326 6.4 9.7 0.00 0.10 0.10 87 1013.1
20260505175116 14 333 8.0 9.7 0.00 0.10 0.10 87 1013.1
20260505174613 14 310 4.8 4.8 0.00 0.10 0.10 88 1013.0
20260505174109 14 342 9.7 11.3 0.00 0.10 0.10 88 1013.1
20260505173606 14 331 1.6 4.8 0.00 0.10 0.10 88 1012.8
20260505173102 15 312 8.0 11.3 0.00 0.10 0.10 87 1012.6
20260505172600 15 315 1.6 1.6 0.00 0.10 0.10 87 1012.8
20260505172057 14 47 1.6 1.6 0.00 0.10 0.10 86 1012.6
20260505171557 15 349 6.4 8.0 0.00 0.10 0.10 86 1012.6
20260505171054 15 310 1.6 1.6 0.00 0.10 0.10 86 1012.7
20260505170551 14 22 1.6 1.6 0.00 0.10 0.10 86 1012.7
20260505170048 15 131 3.2 3.2 0.00 0.10 0.10 86 1012.7
20260505165543 15 50 1.6 1.6 0.00 0.10 0.10 86 1012.8
20260505165039 15 105 0.0 1.6 0.00 0.10 0.10 86 1012.6
20260505164535 15 293 1.6 1.6 0.00 0.10 0.10 86 1012.6
20260505164033 14 222 0.0 1.6 0.00 0.10 0.10 87 1012.5
20260505163531 14 305 3.2 3.2 0.00 0.10 0.10 87 1012.7
20260505163028 14 261 0.0 0.0 0.00 0.10 0.10 87 1012.7
20260505162521 13 293 0.0 1.6 0.00 0.10 0.10 87 1012.6
20260505162018 13 282 0.0 1.6 0.00 0.10 0.10 87 1012.5
20260505161515 14 225 0.0 0.0 0.00 0.10 0.10 88 1012.4
20260505161012 13 229 1.6 1.6 0.00 0.10 0.10 88 1012.5
20260505160510 13 271 0.0 1.6 0.00 0.10 0.10 88 1012.4
20260505152946 13 266 1.6 1.6 0.00 0.10 0.10 91 1012.2
20260505152443 13 189 1.6 3.2 0.00 0.10 0.10 92 1012.1
20260505151938 13 214 0.0 0.0 0.00 0.10 0.10 92 1011.9
20260505151434 12 219 0.0 1.6 0.00 0.10 0.10 92 1011.8
20260505150931 12 218 0.0 0.0 0.00 0.10 0.10 92 1012.2
20260505150428 12 211 1.6 1.6 0.00 0.10 0.10 93 1011.9